Flag for U.S.A. Weather past 2 weeks in Decatur, Illinois, U.S.A.

Now
38 °F

Light rain. Overcast.


Feels Like: 33 °F
Forecast: 28 / 40 °F
Wind: 7 mph from Northeast

Location: Decatur Airport

Current Time: Jan 25, 2015 at 11:12:19 AM

Latest Report: Jan 25, 2015 at 9:54 AM


Visibility: 8 mi

Pressure: 29.63 "Hg

Humidity: 93%

Dew point: 36 °F

Location of DecaturLocation

Historic Weather in Decatur — Graph

°F

Decatur temperature yesterday

Maximum temperature yesterday: 47 °F (at 2:54 PM)
Minimum temperature yesterday: 28 °F (at 12:54 AM)
Average temperature yesterday: 37 °F

Past Weeks' High & Low Weather Summary

 TemperatureHumidityPressure
High49 °F (Jan 17, 1:54 PM)96% (Jan 11, 5:54 PM)30.70 "Hg (Jan 11, 5:54 PM)
Low4 °F (Jan 14, 1:54 AM)46% (Jan 10, 3:54 PM)29.61 "Hg (Jan 25, 4:54 AM)
Average31 °F77%30.16 "Hg
* Reported Jan 10 9:54 AM — Jan 25 9:54 AM, Decatur, Weather by CustomWeather, © 2014

Note: Actual official high and low records may vary slightly from our data, if they occured in-between our weather recording intervals... More about our weather records

Advertising

Decatur weather history for previous 24 hours

 ConditionsComfort  
Time TempWeatherWind HumidityBarometerVisibility
9:54 AM
Jan 25
38 °FLight rain. Overcast.7 mph93%29.63 "Hg8 mi
9:01 AM38 °FLight rain. Fog.6 mph93%29.61 "Hg5 mi
7:54 AM41 °FLight rain. Mostly cloudy.9 mph89%29.61 "Hg10 mi
6:54 AM40 °FLight rain. Mostly cloudy.7 mph86%29.61 "Hg10 mi
5:54 AM40 °FOvercast.7 mph77%29.61 "Hg10 mi
4:54 AM39 °FOvercast.8 mph79%29.61 "Hg10 mi
3:54 AM37 °FOvercast.3 mph82%29.62 "Hg10 mi
2:54 AM38 °FOvercast.6 mph79%29.63 "Hg10 mi
1:54 AM38 °FPassing clouds.6 mph79%29.65 "Hg10 mi
12:54 AM38 °FPassing clouds.6 mph79%29.65 "Hg10 mi
11:54 PM
Jan 24
38 °FClear.7 mph79%29.67 "Hg10 mi
10:54 PM38 °FClear.No wind83%29.69 "Hg10 mi
9:54 PM38 °FClear.8 mph83%29.71 "Hg10 mi
8:54 PM38 °FClear.9 mph83%29.73 "Hg10 mi
7:54 PM37 °FClear.7 mph86%29.74 "Hg10 mi
6:54 PM37 °FClear.7 mph86%29.75 "Hg10 mi
5:54 PM38 °FClear.7 mph83%29.76 "Hg10 mi
4:54 PM44 °FSunny.9 mph73%29.75 "Hg10 mi
3:54 PM47 °FSunny.12 mph66%29.74 "Hg10 mi
2:54 PM47 °FSunny.13 mph66%29.74 "Hg10 mi
1:54 PM46 °FSunny.16 mph66%29.74 "Hg10 mi
12:54 PM44 °FSunny.10 mph65%29.77 "Hg10 mi
11:54 AM43 °FSunny.13 mph68%29.81 "Hg10 mi
Weather by CustomWeather, © 2014

See weather overviewHow to use our weather pages